Location: Unspecified
(42.2730°N, 83.7130°W)
Time: 14:36:02
(UTC+00:00)

Cosmos 2322 - Pass Details

Date: 14 December 2025
Orbit: 840 x 853 km, 71.0° (Epoch: 17 January)

Event Time Altitude Azimuth Distance (km) Brightness Sun altitude
Exits shadow 12:17:04 - 333° (NNW) 3,273 6.3 -7.2°
Reaches altitude 10° 12:19:10 10° 331° (NNW) 2,469 5.6 -6.9°
Maximum altitude 12:24:47 68° 250° (WSW) 906 3.8 -5.9°
Drops below altitude 10° 12:30:24 10° 168° (SSE) 2,461 6.7 -5.0°
Sets 12:32:51 0° 165° (SSE) 3,395 7.5 -4.6°
